Hourly Data Report for October 04, 2016

All times are specified in Local Standard Time (LST). Add 1 hour to adjust for Daylight Saving Time where and when it is observed.

OTTAWA INTL A
ONTARIO

45°19'00.000" N
75°40'00.000" W
114.90 m
6106001
71628
YOW

Download Data

Hourly Data (October 2016)
Hourly Data Report for October 4, 2016
Temp Definition
°C
Dew Point Temp Definition
°C
Rel Hum Definition
%
Wind Dir Definition
10's deg

Wind Spd Definition
km/h
Visibility Definition
km
Stn Press Definition
kPa
Hmdx Definition


Wind Chill Definition


Weather Definition


TIME
00:00 Legend Double Dagger 9.8 8.6 92 6 11 24.1 101.02     LegendNANA
01:00 Legend Double Dagger 9.3 8.6 95 6 10 24.1 101.07     Mainly Clear
02:00 Legend Double Dagger 8.6 8.3 98 5 14 24.1 101.08     LegendNANA
03:00 Legend Double Dagger 8.3 7.6 95 5 12 24.1 101.10     LegendNANA
04:00 Legend Double Dagger 7.0 6.6 97 5 10 24.1 101.13     Clear
05:00 Legend Double Dagger 7.9 6.7 92 6 11 24.1 101.19     LegendNANA
06:00 Legend Double Dagger 7.7 4.8 82 7 17 24.1 101.25     LegendNANA
07:00 Legend Double Dagger 7.9 4.0 76 8 18 24.1 101.32     Clear
08:00 Legend Double Dagger 9.5 4.3 70 8 16 24.1 101.37     LegendNANA
09:00 Legend Double Dagger 11.4 4.9 64 10 13 24.1 101.43     LegendNANA
10:00 Legend Double Dagger 13.4 6.3 62 6 12 24.1 101.44     Clear
11:00 Legend Double Dagger 16.0 7.8 58 7 10 24.1 101.42     LegendNANA
12:00 Legend Double Dagger 17.8 8.7 55 5 13 24.1 101.39     LegendNANA
13:00 Legend Double Dagger 19.1 9.1 52 7 15 24.1 101.33     Clear
14:00 Legend Double Dagger 19.8 8.9 49 6 8 24.1 101.28     LegendNANA
15:00 Legend Double Dagger 19.5 8.0 47 15 10 24.1 101.24     LegendNANA
16:00 Legend Double Dagger 19.3 8.4 49 9 8 24.1 101.23     Clear
17:00 Legend Double Dagger 17.7 8.9 56 9 7 24.1 101.23     LegendNANA
18:00 Legend Double Dagger 14.8 9.0 68 7 8 24.1 101.25     LegendNANA
19:00 Legend Double Dagger 13.3 9.2 76 9 9 24.1 101.30     Clear
20:00 Legend Double Dagger 13.2 8.5 73 12 8 24.1 101.33     LegendNANA
21:00 Legend Double Dagger 12.2 8.1 76 12 10 24.1 101.35     LegendNANA
22:00 Legend Double Dagger 10.4 7.3 81 13 11 24.1 101.39     Clear
23:00 Legend Double Dagger 11.6 7.7 77 11 8 24.1 101.38     LegendNANA

Notes on Data Quality.

Legend

  • E = Estimated
  • M = Missing
  • NA = Not Available
  • ‡ = Partner data that is not subject to review by the National Climate Archives
Date modified: